Location: ????????
(55.7667°N, 37.4833°E)
Time: 03:37:39
(UTC+00:00)

Okean 2 - Pass Details

Date: 19 May 2025
Orbit: 522 x 534 km, 82.5° (Epoch: 19 June)

Event Time Altitude Azimuth Distance (km) Brightness Sun altitude
Exits shadow 23:25:19 10° 177° (S) 1,762 5.4 -10.2°
Maximum altitude 23:29:08 61° 97° (E) 616 3.7 -9.9°
Drops below altitude 10° 23:33:02 10° 18° (NNE) 1,804 7.5 -9.7°
Sets 23:35:13 0° 15° (NNE) 2,699 8.6 -9.5°
